Location: Baia Mare
(47.6567°N, 23.5850°E)
Time: 11:47:51
(UTC+02:00)

ISS - Pass Details

Date: 25 January 2019
Orbit: 404 x 407 km, 51.6° (Epoch: 16 January)

Event Time Altitude Azimuth Distance (km) Brightness Sun altitude
Rises 17:51:08 0° 206° (SSW) 2,311 0.8 -6.3°
Reaches altitude 10° 17:53:32 10° 189° (S) 1,456 -0.6 -6.7°
Maximum altitude 17:56:02 20° 139° (SE) 990 -2.1 -7.1°
Drops below altitude 10° 17:58:33 10° 89° (E) 1,465 -1.6 -7.5°
Enters shadow 17:58:45 - 87° (E) 1,529 -1.5 -7.5°
